カタログに戻る

ATLAS 5 CENTAUR DEB

運用中HEO
NORAD 49343·DEBRIS·🇺🇸 United States

打ち上げ Oct 17, 2018 から Cape Canaveral Space Force Station

Loading…

次のパス (今後24時間)

TLE

最新Source: Space-Track

元期: Sep 13, 2026, 03:35 UTC

1 49343U 18079EU  26256.14967432 -.00000149  00000-0  00000+0 0  9999
2 49343  13.0576  54.0742 4566459 276.4868  35.2733  1.74614932 32161

AllMySatでATLAS 5 CENTAUR DEBをリアルタイム追跡

Download on the App Store